Location: Prague
(50.0830°N, 14.4670°E)
Time: 22:37:15
(UTC+01:00)

BEESAT 2 - Pass Details

Date: 07 December 2021
Orbit: 498 x 514 km, 64.9° (Epoch: 16 January)

Event Time Altitude Azimuth Distance (km) Brightness Sun altitude
Exits shadow 04:21:52 20° 85° (E) 1,220 ? -31.7°
Drops below altitude 10° 04:23:30 10° 102° (ESE) 1,742 ? -31.5°
Sets 04:25:50 0° 113° (ESE) 2,623 ? -31.1°
